[[{"header":{"parameterUnit":"m.s-1","parameterCategory":2,"la1":30.2991,"la2":30.254,"lo1":-89.0895,"lo2":-89.0444,"dy":0.0017,"dx":0.0017,"nx":28,"ny":28,"refTime":"2024-06-23T03:00:00:Z","depth":"0","parameterNumber":2,"parameterNumberName":"U-component_of_CURRENTS"},"data":[0,0,0,0,0,0,0,0,0,0,0,0,0,0,0,0,0,0,0,0,0,0,0,0,0,0,0,0,0,0,0,0,0,0,0,0,0,0,0,0,0,0,0,0,0,0,0,0,0,0,0,0,0,0,0,0,0,0,0.1583,0.1583,0,0.1571,0.1571,0.1571,0.1584,0.1584,0.1585,0.1586,0.1585,0.1584,0.1583,0,0,0,0,0,0,0,0,0,0,0,0,0,0.1445,0.1448,0.1583,0.1583,0.1583,0.1572,0.1571,0.1571,0.1584,0.1584,0.1585,0.1586,0.1585,0.1584,0.1583,0,0,0,0,0,0,0,0,0,0,0,0,0,0.1474,0.1449,0.1583,0.159,0.1591,0.1572,0.1571,0.1571,0.1583,0.1584,0.1586,0.1587,0.1585,0.1584,0.1583,0.1555,0,0,0.158,0.1579,0,0,0,0,0,0,0,0,0.1472,0.1479,0.1589,0.159,0.159,0.1582,0.1522,0.1567,0.1583,0.1583,0.1586,0.1587,0.1586,0.1585,0.1576,0.1555,0.1555,0.158,0.1579,0.1579,0.1578,0,0,0,0,0,0,0,0.1471,0.1478,0.1576,0.1589,0.159,0.1535,0.1542,0.1529,0.1577,0.1583,0.1585,0.1588,0.1586,0.1577,0.1576,0.1555,0.158,0.1579,0.1578,0.1578,0.1564,0.1564,0,0,0,0,0,0,0.1486,0.1478,0.1576,0.1576,0.1536,0.1538,0.1545,0.1582,0.1577,0.1578,0.1587,0.1588,0.1579,0.1578,0.1577,0.1601,0.1579,0.1578,0.1577,0.1563,0.1564,0.1564,0,0,0,0,0,0,0.1484,0.1496,0.1577,0.1526,0.1533,0.1541,0.158,0.1581,0.1582,0.158,0.158,0.159,0.1579,0.1578,0.1575,0.1599,0.1577,0.1576,0.1563,0.1563,0.1564,0.1613,0,0,0,0,0,0,0.148,0.1496,0.1522,0.1528,0.1536,0.1576,0.158,0.158,0.1583,0.1585,0.1582,0.1582,0.158,0.1577,0.1574,0.1597,0.1575,0.1563,0.1563,0.1564,0.1611,0.1615,0.1618,0,0,0,0,0,0.1476,0.151,0.1525,0.1536,0.1576,0.1576,0.1575,0.158,0.1582,0.1584,0.1582,0.1583,0.1579,0.1576,0.1573,0.1596,0.1562,0.1563,0.1564,0.1609,0.1614,0.1618,0,0,0,0,0,0,0.1473,0.1515,0.1531,0.1582,0.1584,0.158,0.158,0.1581,0.1578,0.1581,0.1578,0.1578,0.159,0.1576,0.1573,0.1592,0.1574,0.1574,0.1609,0.1614,0.1617,0.1696,0.1575,0,0,0,0,0,0.1484,0.1519,0.1541,0.1579,0.1581,0.1579,0.1578,0.1582,0.1581,0.1581,0.1579,0.1578,0.1585,0.1587,0.1585,0.1584,0.1667,0.1598,0.1602,0.1605,0.1667,0.1806,0.183,0.1566,0.1566,0.1566,0,0,0.1496,0.152,0.1543,0.1578,0.1578,0.1586,0.1581,0.1584,0.1599,0.158,0.1593,0.1589,0.1588,0.1599,0.1603,0.1593,0.1719,0.1606,0.1609,0.167,0.1809,0.1836,0.186,0.1566,0.1566,0.1566,0,0,0.1509,0.1555,0.1574,0.1578,0.1585,0.1589,0.1593,0.1593,0.1603,0.1602,0.1609,0.1636,0.1606,0.1644,0.1651,0.1673,0.1735,0.1646,0.1731,0.1863,0.1888,0.1911,0.204,0.2075,0.1647,0.1647,0.1647,0,0.1519,0.1558,0.1574,0.1581,0.1594,0.1595,0.1608,0.1615,0.1615,0.1646,0.1613,0.1663,0.1647,0.1725,0.1731,0.1691,0.1775,0.1712,0.1875,0.19,0.1923,0.205,0.2087,0.1649,0.1649,0.1649,0.1649,0,0.1533,0.1564,0.157,0.1596,0.1609,0.1618,0.1637,0.1656,0.1661,0.1682,0.1747,0.1745,0.18,0.1775,0.1756,0.1901,0.1911,0.1868,0.1878,0.1954,0.208,0.2119,0.1653,0.1652,0.1651,0.1651,0,0,0.1553,0.1579,0.1579,0.1599,0.1621,0.1635,0.1675,0.1727,0.1795,0.1793,0.1902,0.1902,0.1941,0.1957,0.1951,0.2048,0.2252,0.2031,0.2037,0.2186,0.2569,0.253,0.2568,0.2243,0.2249,0.2255,0.259,0,0.1556,0.1577,0.1595,0.1628,0.1645,0.168,0.1728,0.1782,0.1833,0.1936,0.1983,0.2062,0.1997,0.2044,0.214,0.2232,0.2358,0.2168,0.2452,0.2462,0.2441,0.2613,0.2566,0.2858,0.2628,0.2634,0.2639,0,0.1555,0.1575,0.1602,0.167,0.1685,0.1712,0.1829,0.1876,0.2018,0.207,0.2184,0.2232,0.2391,0.2313,0.2575,0.2458,0.2546,0.2602,0.2615,0.2607,0.2497,0.2744,0.2936,0.2839,0.2698,0.2693,0.2689,0,0.1541,0.1585,0.1612,0.1627,0.1699,0.1741,0.1795,0.1918,0.2007,0.219,0.2295,0.246,0.2578,0.2719,0.2818,0.2732,0.3111,0.2999,0.306,0.3057,0.3094,0.3082,0.3258,0.3234,0.3234,0.3233,0.3232,0,0.1534,0.1556,0.1611,0.1622,0.1696,0.1751,0.1872,0.195,0.2128,0.2272,0.2381,0.2543,0.2691,0.2886,0.2952,0.3154,0.3234,0.3164,0.3174,0.31,0.3086,0.3057,0.2957,0.3245,0.3242,0.324,0.3238,0,0.1502,0.1529,0.1571,0.165,0.1682,0.1737,0.1894,0.201,0.2158,0.2369,0.2442,0.2682,0.2932,0.3073,0.3331,0.3337,0.3427,0.3546,0.3445,0.3437,0.3338,0.324,0.3338,0.3239,0.3701,0.3703,0.3704,0,0.1496,0.1509,0.1579,0.1627,0.1661,0.1761,0.1855,0.2005,0.2138,0.2443,0.2559,0.2855,0.3043,0.3413,0.3527,0.3718,0.3537,0.3744,0.3558,0.3413,0.3314,0.31,0.2991,0.3635,0.3635,0.3636,0.3636,0,0.1504,0.1516,0.1557,0.1644,0.1729,0.1826,0.1962,0.2056,0.2266,0.2436,0.2696,0.287,0.3236,0.3428,0.366,0.374,0.3555,0.3755,0.3669,0.3365,0.3092,0.2971,0.3314,0.3641,0.364,0.364,0.364,0.364,0.1551,0.1569,0.1634,0.1717,0.179,0.1889,0.1959,0.2108,0.2281,0.2518,0.272,0.295,0.3282,0.3604,0.3649,0.3709,0.3591,0.3641,0.3572,0.3396,0.3187,0.3529,0.3792,0.3793,0.3793,0.3793,0.3794,0,0.1661,0.1676,0.1732,0.1824,0.188,0.1916,0.2048,0.2111,0.2255,0.2476,0.2679,0.3042,0.3258,0.3457,0.3659,0.3568,0.3364,0.3474,0.319,0.3116,0.3538,0.3416,0.3532,0.3532,0.3532,0.3532,0.3532,0.3532,0.1757,0.1816,0.182,0.1913,0.1948,0.201,0.2058,0.2118,0.2236,0.2446,0.2638,0.2846,0.3188,0.3466,0.3469,0.3393,0.3103,0.3007,0.2907,0.3221,0.3229,0.3237,0.3103,0.3152,0.3151,0.2409,0.2404,0.2399]},{"header":{"parameterUnit":"m.s-1","parameterCategory":2,"la1":30.2991,"la2":30.254,"lo1":-89.0895,"lo2":-89.0444,"dy":0.0017,"dx":0.0017,"nx":28,"ny":28,"refTime":"2024-06-23T03:00:00:Z","depth":"0","parameterNumber":3,"parameterNumberName":"V-component_of_CURRENTS"},"data":[0,0,0,0,0,0,0,0,0,0,0,0,0,0,0,0,0,0,0,0,0,0,0,0,0,0,0,0,0,0,0,0,0,0,0,0,0,0,0,0,0,0,0,0,0,0,0,0,0,0,0,0,0,0,0,0,0,0,-0.0115,-0.0115,0,-0.0066,-0.0065,-0.0065,-0.0096,-0.0097,-0.0099,-0.01,-0.0113,-0.0112,-0.0111,0,0,0,0,0,0,0,0,0,0,0,0,0,-0.0208,-0.0206,-0.0115,-0.0114,-0.0114,-0.0066,-0.0065,-0.0065,-0.0096,-0.0098,-0.0099,-0.01,-0.0113,-0.0112,-0.0111,0,0,0,0,0,0,0,0,0,0,0,0,0,-0.0166,-0.0206,-0.0116,-0.0121,-0.0121,-0.0066,-0.0065,-0.0065,-0.0096,-0.0098,-0.0099,-0.0101,-0.0113,-0.0112,-0.0111,-0.0068,0,0,-0.0108,-0.0107,0,0,0,0,0,0,0,0,-0.0169,-0.0163,-0.0121,-0.0121,-0.012,-0.0087,-0.0103,-0.0068,-0.0095,-0.0108,-0.01,-0.0102,-0.0107,-0.0106,-0.0096,-0.0068,-0.0069,-0.0108,-0.0107,-0.0106,-0.0106,0,0,0,0,0,0,0,-0.0172,-0.0166,-0.0099,-0.012,-0.012,-0.0116,-0.0113,-0.0096,-0.0101,-0.0107,-0.0109,-0.0098,-0.0108,-0.0097,-0.0097,-0.0069,-0.0108,-0.0107,-0.0106,-0.0105,-0.0064,-0.0063,0,0,0,0,0,0,-0.0171,-0.0168,-0.01,-0.0097,-0.0146,-0.0113,-0.0109,-0.0098,-0.01,-0.0101,-0.0097,-0.01,-0.0098,-0.0098,-0.0097,-0.0073,-0.0106,-0.0105,-0.0105,-0.0064,-0.0063,-0.0063,0,0,0,0,0,0,-0.0173,-0.0166,-0.0102,-0.0129,-0.0121,-0.0109,-0.0096,-0.0096,-0.0092,-0.0091,-0.0094,-0.0094,-0.01,-0.0099,-0.0089,-0.0073,-0.0105,-0.0104,-0.0064,-0.0064,-0.0063,-0.0008,0,0,0,0,0,0,-0.0176,-0.0167,-0.0153,-0.0129,-0.0119,-0.0063,-0.0094,-0.0094,-0.0081,-0.0085,-0.0089,-0.0092,-0.0101,-0.009,-0.0088,-0.0072,-0.0103,-0.0065,-0.0064,-0.0063,-0.001,-0.0006,-0.0002,0,0,0,0,0,-0.018,-0.0138,-0.0153,-0.0144,-0.0103,-0.0062,-0.0056,-0.0057,-0.0079,-0.0064,-0.0078,-0.0092,-0.0085,-0.0088,-0.0085,-0.007,-0.0065,-0.0064,-0.0063,-0.0012,-0.0007,-0.0002,0,0,0,0,0,0,-0.0156,-0.0137,-0.0152,-0.0106,-0.0089,-0.0066,-0.004,-0.0052,-0.0048,-0.0058,-0.0075,-0.0077,-0.0067,-0.0074,-0.0078,-0.0058,-0.0081,-0.0079,-0.0043,-0.0038,-0.0033,0.0011,-0.0102,0,0,0,0,0,-0.0148,-0.0125,-0.0109,-0.0073,-0.0062,-0.0057,-0.0041,-0.0045,-0.0038,-0.0038,-0.0046,-0.0056,-0.0056,-0.0053,-0.0053,-0.0028,-0.0021,-0.0022,-0.0017,-0.0013,0.0023,0.0037,0.0047,-0.006,-0.006,-0.006,0,0,-0.0127,-0.0115,-0.0101,-0.0068,-0.0056,-0.0028,-0.0052,-0.0021,-0.0005,-0.0038,-0.002,-0.0037,-0.0048,-0.003,-0.0026,-0.0035,0.0017,-0.0012,-0.0009,0.0027,0.0039,0.005,0.0059,-0.0059,-0.0059,-0.0059,0,0,-0.007,-0.0066,-0.0031,-0.0019,0.0002,0.0005,0.0011,0.0027,0.0025,0.0041,0.0014,0.0014,0.0013,0.0015,0.0013,0.0047,0.0038,0.0032,0.0099,0.0111,0.0121,0.0129,0.0143,0.0152,0.0038,0.0038,0.0038,0,-0.0047,-0.0007,-0.0011,0.0021,0.0044,0.0018,0.006,0.0061,0.0072,0.0095,0.005,0.007,0.0041,0.0086,0.0081,0.0061,0.0067,0.008,0.012,0.0128,0.0136,0.0148,0.0157,0.004,0.004,0.004,0.004,0,0.0031,0.0055,0.0083,0.0103,0.0126,0.0161,0.0159,0.0171,0.0153,0.0161,0.0193,0.0159,0.0183,0.0153,0.0124,0.0171,0.0156,0.0121,0.0112,0.0151,0.0159,0.0169,0.0044,0.0043,0.0043,0.0042,0,0,0.0104,0.0131,0.0137,0.0161,0.0171,0.0209,0.0231,0.0273,0.0321,0.0293,0.0367,0.0325,0.0319,0.0317,0.0281,0.0276,0.0304,0.0226,0.0225,0.0251,0.0341,0.0291,0.0296,0.0275,0.0277,0.0279,0.0321,0,0.0166,0.0234,0.0233,0.03,0.0339,0.0327,0.0365,0.0392,0.0405,0.0464,0.0433,0.0479,0.0378,0.0401,0.0379,0.034,0.0334,0.0297,0.0291,0.0292,0.0252,0.0307,0.0278,0.031,0.033,0.0331,0.0333,0,0.0241,0.0278,0.0349,0.0409,0.043,0.0463,0.0543,0.0579,0.0635,0.0655,0.0686,0.067,0.0684,0.0578,0.0541,0.0525,0.0446,0.039,0.039,0.0342,0.026,0.0275,0.0326,0.0118,0.0347,0.0345,0.0344,0,0.0299,0.0365,0.0425,0.0441,0.0499,0.0542,0.0581,0.0643,0.0726,0.0797,0.0875,0.0862,0.0896,0.0797,0.0665,0.0617,0.0617,0.0534,0.0419,0.0414,0.0391,0.0381,0.0256,0.051,0.051,0.051,0.051,0,0.0364,0.0419,0.0457,0.049,0.06,0.0616,0.0752,0.0785,0.0897,0.1046,0.0992,0.1106,0.0953,0.0925,0.076,0.0638,0.0693,0.0465,0.0434,0.0405,0.0396,0.0213,0.0119,0.0511,0.0511,0.0511,0.051,0,0.0423,0.0432,0.0524,0.0595,0.0624,0.0713,0.0865,0.0994,0.1054,0.125,0.1291,0.1324,0.128,0.1104,0.0967,0.0791,0.0544,0.0584,0.0559,0.0524,0.0191,0.0103,0.0027,-0.0061,0.0477,0.0476,0.0475,0,0.048,0.0522,0.0605,0.069,0.0729,0.0858,0.098,0.1067,0.1223,0.1401,0.1527,0.1531,0.1573,0.1342,0.1017,0.0745,0.0547,0.0533,0.0418,0.0199,0.0079,0.0023,-0.0051,0.0407,0.0406,0.0405,0.0404,0,0.0625,0.0629,0.0702,0.0845,0.0975,0.1131,0.1298,0.1424,0.1574,0.1711,0.19,0.1935,0.1704,0.1425,0.1019,0.0804,0.039,0.0503,0.0294,0.0043,-0.0036,-0.0145,0.0347,0.0396,0.0397,0.0397,0.0398,0.0398,0.0783,0.0847,0.0937,0.1076,0.1213,0.1408,0.1551,0.174,0.1956,0.2177,0.2172,0.2237,0.1788,0.1226,0.0902,0.028,0.0315,0.0079,0.0004,-0.0024,-0.0149,0.0323,0.0313,0.0314,0.0314,0.0314,0.0315,0,0.1026,0.1064,0.1191,0.1359,0.1519,0.1548,0.1789,0.1936,0.2178,0.2358,0.2476,0.2261,0.1694,0.1111,0.0284,-0.0141,-0.029,-0.0365,-0.0466,-0.051,-0.0078,-0.0129,-0.0254,-0.0254,-0.0254,-0.0253,-0.0253,-0.0253,0.119,0.1321,0.1333,0.1616,0.172,0.1944,0.2071,0.2254,0.2395,0.2587,0.2611,0.2594,0.2109,0.0633,-0.0373,-0.06,-0.0865,-0.0915,-0.1034,-0.0784,-0.075,-0.0717,-0.079,-0.1052,-0.1053,-0.1445,-0.1449,-0.1452]}],[{"header":{"parameterUnit":"m.s-1","parameterCategory":2,"la1":30.2991,"la2":30.254,"lo1":-89.0895,"lo2":-89.0444,"dy":0.0017,"dx":0.0017,"nx":28,"ny":28,"refTime":"2024-06-23T03:00:00:Z","depth":"2","parameterNumber":2,"parameterNumberName":"U-component_of_CURRENTS"},"data":[0,0,0,0,0,0,0,0,0,0,0,0,0,0,0,0,0,0,0,0,0,0,0,0,0,0,0,0,0,0,0,0,0,0,0,0,0,0,0,0,0,0,0,0,0,0,0,0,0,0,0,0,0,0,0,0,0,0,0.1504,0.1505,0,0.1542,0.1542,0.1542,0.1561,0.1562,0.1562,0.1563,0.1565,0.1564,0.1563,0,0,0,0,0,0,0,0,0,0,0,0,0,0.1359,0.1362,0.1504,0.1505,0.1506,0.1542,0.1542,0.1542,0.1561,0.1562,0.1563,0.1563,0.1565,0.1564,0.1563,0,0,0,0,0,0,0,0,0,0,0,0,0,0.1405,0.1363,0.1504,0.1526,0.1529,0.1542,0.1542,0.1542,0.156,0.1562,0.1563,0.1564,0.1565,0.1564,0.1563,0.1535,0,0,0.156,0.156,0,0,0,0,0,0,0,0,0.1402,0.1409,0.1522,0.1525,0.1528,0.1555,0.1492,0.154,0.156,0.154,0.1563,0.1564,0.1563,0.1562,0.1555,0.1535,0.1535,0.156,0.156,0.1559,0.1559,0,0,0,0,0,0,0,0.1399,0.1407,0.1511,0.1523,0.1527,0.1505,0.1513,0.1501,0.1537,0.1542,0.1545,0.1562,0.1563,0.1556,0.1556,0.1535,0.156,0.1559,0.1559,0.1558,0.1552,0.1552,0,0,0,0,0,0,0.1415,0.1405,0.151,0.1513,0.1476,0.1508,0.1516,0.1539,0.1538,0.1542,0.1561,0.1563,0.1557,0.1557,0.1556,0.1582,0.1559,0.1558,0.1558,0.1551,0.1552,0.1552,0,0,0,0,0,0,0.1412,0.1424,0.1508,0.1465,0.1476,0.1511,0.1535,0.1539,0.1544,0.1555,0.1557,0.1566,0.1558,0.1557,0.1559,0.1581,0.1558,0.1557,0.1551,0.1551,0.1552,0.1597,0,0,0,0,0,0,0.1407,0.1422,0.1446,0.1467,0.1479,0.1528,0.1535,0.1539,0.1557,0.1559,0.1559,0.156,0.1559,0.156,0.1558,0.1579,0.1556,0.155,0.1551,0.1552,0.1595,0.1599,0.1602,0,0,0,0,0,0.1402,0.1439,0.1447,0.146,0.151,0.1529,0.1532,0.1554,0.1556,0.156,0.1561,0.156,0.1564,0.1559,0.1556,0.1578,0.155,0.1551,0.1552,0.1593,0.1598,0.1602,0,0,0,0,0,0,0.1393,0.1445,0.1455,0.1507,0.1521,0.1536,0.1553,0.1555,0.1556,0.156,0.1558,0.1558,0.1572,0.1561,0.1556,0.1578,0.1559,0.156,0.1592,0.1596,0.16,0.1655,0.1555,0,0,0,0,0,0.1401,0.1442,0.1471,0.1512,0.152,0.153,0.1542,0.155,0.1558,0.156,0.156,0.1562,0.1569,0.1572,0.1572,0.1573,0.162,0.1587,0.1591,0.1594,0.1637,0.1721,0.1738,0.1555,0.1555,0.1555,0,0,0.1415,0.1446,0.1473,0.1512,0.1523,0.1537,0.1538,0.1559,0.1575,0.1558,0.1575,0.1573,0.1572,0.1586,0.1591,0.1582,0.1665,0.1595,0.1598,0.164,0.1724,0.1742,0.1759,0.1556,0.1556,0.1556,0,0,0.1441,0.148,0.1509,0.152,0.1545,0.1551,0.1558,0.1569,0.1581,0.1586,0.1592,0.1614,0.1596,0.1626,0.1632,0.1655,0.1683,0.1637,0.1702,0.1782,0.1799,0.1815,0.1884,0.1906,0.1638,0.1638,0.1638,0,0.1453,0.1492,0.1517,0.1533,0.1555,0.1558,0.1576,0.1585,0.1596,0.1619,0.1599,0.1638,0.1629,0.1689,0.1699,0.167,0.1715,0.1684,0.1792,0.1808,0.1823,0.1891,0.1914,0.1641,0.164,0.164,0.164,0,0.1483,0.1514,0.153,0.1558,0.1579,0.1597,0.1616,0.1634,0.164,0.1655,0.1707,0.1709,0.1752,0.1735,0.1723,0.1822,0.1818,0.1789,0.1788,0.1845,0.1911,0.1935,0.1644,0.1643,0.1642,0.1642,0,0,0.1507,0.1546,0.1549,0.1567,0.1595,0.1615,0.1652,0.1694,0.1748,0.1747,0.1827,0.1835,0.1861,0.1874,0.1871,0.1929,0.2056,0.1909,0.1912,0.1995,0.224,0.2173,0.2192,0.2046,0.205,0.2054,0.2239,0,0.1518,0.1552,0.1574,0.1612,0.1632,0.1662,0.1704,0.1746,0.1787,0.1861,0.1889,0.1955,0.1906,0.195,0.2003,0.2054,0.2123,0.201,0.216,0.2165,0.2113,0.2219,0.2052,0.2198,0.2262,0.2266,0.2269,0,0.153,0.1556,0.1591,0.1653,0.1668,0.1694,0.1791,0.1831,0.1929,0.1971,0.2052,0.2089,0.2196,0.2137,0.2288,0.2219,0.2252,0.2272,0.2279,0.223,0.2144,0.2153,0.2239,0.2308,0.2305,0.2302,0.23,0,0.1522,0.1571,0.1603,0.1619,0.1684,0.1722,0.1766,0.1861,0.1932,0.2069,0.2152,0.2258,0.2345,0.241,0.2452,0.2396,0.2605,0.2529,0.2502,0.2497,0.2396,0.2373,0.2655,0.2655,0.2655,0.2654,0.2654,0,0.1523,0.1548,0.1602,0.1617,0.1682,0.173,0.1829,0.1894,0.2026,0.2121,0.2221,0.2326,0.2423,0.2533,0.2541,0.2612,0.2688,0.2568,0.2561,0.24,0.2377,0.2496,0.2475,0.2661,0.266,0.2658,0.2657,0,0.1499,0.1529,0.1572,0.1644,0.1674,0.172,0.185,0.193,0.2059,0.2204,0.2263,0.2435,0.2574,0.2653,0.2777,0.2738,0.2796,0.2791,0.2591,0.2558,0.2613,0.2592,0.2813,0.2812,0.2812,0.2812,0.2812,0,0.1485,0.1503,0.1581,0.1614,0.1645,0.1729,0.1795,0.1926,0.2013,0.2242,0.2305,0.2511,0.261,0.2786,0.2789,0.2848,0.2838,0.2695,0.2551,0.2669,0.2641,0.2619,0.2599,0.2435,0.2431,0.2429,0.2427,0,0.1463,0.149,0.1528,0.1598,0.1659,0.1736,0.1832,0.1905,0.2062,0.2182,0.2342,0.2452,0.2643,0.2641,0.2724,0.2701,0.2671,0.264,0.2876,0.2397,0.2321,0.2289,0.2281,0.2403,0.2405,0.2407,0.2408,0.2409,0.1446,0.147,0.1522,0.1584,0.1653,0.1715,0.1755,0.1846,0.1952,0.2091,0.225,0.2348,0.2452,0.2487,0.2453,0.2436,0.2579,0.2463,0.2469,0.2478,0.2377,0.2303,0.2363,0.2365,0.2367,0.2369,0.237,0,0.1421,0.1459,0.151,0.1572,0.1611,0.1671,0.1762,0.1756,0.1806,0.1972,0.2081,0.2005,0.2068,0.2161,0.2123,0.2141,0.2082,0.2043,0.1961,0.1989,0.2014,0.1884,0.1742,0.174,0.1737,0.1735,0,0,0.1408,0.1436,0.1461,0.1504,0.1554,0.1574,0.1602,0.1577,0.1652,0.1672,0.174,0.1964,0.2114,0.1884,0.1894,0.1821,0.187,0.175,0.2268,0.2202,0.2222,0.2291,0.2129,0,0,0,0,0]},{"header":{"parameterUnit":"m.s-1","parameterCategory":2,"la1":30.2991,"la2":30.254,"lo1":-89.0895,"lo2":-89.0444,"dy":0.0017,"dx":0.0017,"nx":28,"ny":28,"refTime":"2024-06-23T03:00:00:Z","depth":"2","parameterNumber":3,"parameterNumberName":"V-component_of_CURRENTS"},"data":[0,0,0,0,0,0,0,0,0,0,0,0,0,0,0,0,0,0,0,0,0,0,0,0,0,0,0,0,0,0,0,0,0,0,0,0,0,0,0,0,0,0,0,0,0,0,0,0,0,0,0,0,0,0,0,0,0,0,-0.0261,-0.026,0,-0.0215,-0.0215,-0.0215,-0.0241,-0.0241,-0.0242,-0.0243,-0.0287,-0.0287,-0.0288,0,0,0,0,0,0,0,0,0,0,0,0,0,-0.0353,-0.0352,-0.0261,-0.026,-0.0259,-0.0215,-0.0215,-0.0215,-0.024,-0.0241,-0.0242,-0.0243,-0.0287,-0.0287,-0.0288,0,0,0,0,0,0,0,0,0,0,0,0,0,-0.0315,-0.0351,-0.0261,-0.0263,-0.0262,-0.0215,-0.0215,-0.0215,-0.024,-0.0241,-0.0243,-0.0244,-0.0287,-0.0287,-0.0288,-0.0268,0,0,-0.029,-0.029,0,0,0,0,0,0,0,0,-0.0318,-0.0313,-0.0264,-0.0263,-0.0262,-0.023,-0.0263,-0.0235,-0.024,-0.0254,-0.0243,-0.0244,-0.0272,-0.0274,-0.0269,-0.027,-0.0272,-0.029,-0.029,-0.0291,-0.0291,0,0,0,0,0,0,0,-0.032,-0.0315,-0.0248,-0.0262,-0.0261,-0.0258,-0.0255,-0.0258,-0.0263,-0.0253,-0.0253,-0.0239,-0.0273,-0.0268,-0.027,-0.0273,-0.029,-0.0291,-0.0291,-0.0291,-0.0292,-0.0292,0,0,0,0,0,0,-0.0314,-0.0317,-0.025,-0.0246,-0.0287,-0.0256,-0.0252,-0.0243,-0.0261,-0.0262,-0.0238,-0.0241,-0.0266,-0.0269,-0.0272,-0.0266,-0.0291,-0.0291,-0.0292,-0.0293,-0.0292,-0.0292,0,0,0,0,0,0,-0.0317,-0.0309,-0.0251,-0.0276,-0.0268,-0.0252,-0.0242,-0.0242,-0.0239,-0.0248,-0.0252,-0.0236,-0.0267,-0.0271,-0.0283,-0.0268,-0.0292,-0.0292,-0.0293,-0.0293,-0.0292,-0.0245,0,0,0,0,0,0,-0.032,-0.0311,-0.0299,-0.0276,-0.0266,-0.0224,-0.024,-0.024,-0.0226,-0.0229,-0.0247,-0.0252,-0.0269,-0.0281,-0.0283,-0.0269,-0.0293,-0.0294,-0.0293,-0.0292,-0.0247,-0.0242,-0.0239,0,0,0,0,0,-0.0323,-0.0283,-0.0299,-0.029,-0.0252,-0.0222,-0.0218,-0.0214,-0.0225,-0.0219,-0.0239,-0.0252,-0.0279,-0.0282,-0.0284,-0.027,-0.0294,-0.0293,-0.0292,-0.0248,-0.0243,-0.0239,0,0,0,0,0,0,-0.0308,-0.0281,-0.0298,-0.0251,-0.0246,-0.0225,-0.0199,-0.021,-0.0217,-0.0221,-0.0247,-0.0252,-0.0257,-0.027,-0.0273,-0.0269,-0.0288,-0.0288,-0.0254,-0.0249,-0.0246,-0.0229,-0.0293,0,0,0,0,0,-0.0302,-0.0271,-0.0261,-0.0227,-0.0219,-0.0216,-0.0202,-0.0206,-0.0205,-0.0209,-0.0226,-0.0242,-0.0252,-0.0258,-0.0269,-0.0263,-0.0285,-0.0256,-0.0253,-0.0249,-0.0238,-0.0273,-0.0271,-0.0289,-0.0289,-0.0289,0,0,-0.0282,-0.0265,-0.0246,-0.0223,-0.0213,-0.0197,-0.0211,-0.0183,-0.0176,-0.0212,-0.0209,-0.0229,-0.0249,-0.0248,-0.025,-0.0258,-0.0254,-0.0248,-0.0245,-0.0235,-0.0272,-0.027,-0.0269,-0.0289,-0.0289,-0.0289,0,0,-0.0227,-0.0219,-0.0184,-0.0181,-0.0165,-0.0165,-0.016,-0.0151,-0.0155,-0.0155,-0.0181,-0.0194,-0.0207,-0.0218,-0.0225,-0.0205,-0.0235,-0.021,-0.0172,-0.0207,-0.0206,-0.0205,-0.0225,-0.0226,-0.0205,-0.0205,-0.0205,0,-0.0207,-0.0174,-0.0169,-0.0147,-0.0135,-0.0153,-0.013,-0.013,-0.0132,-0.0132,-0.0151,-0.0174,-0.0191,-0.0189,-0.0182,-0.0195,-0.0218,-0.0187,-0.0202,-0.0202,-0.0202,-0.0222,-0.0224,-0.0203,-0.0203,-0.0203,-0.0203,0,-0.0141,-0.0126,-0.01,-0.009,-0.0078,-0.0054,-0.0062,-0.0062,-0.0074,-0.0082,-0.0088,-0.0117,-0.0126,-0.0138,-0.015,-0.0152,-0.0169,-0.0196,-0.0212,-0.0197,-0.022,-0.0223,-0.0199,-0.02,-0.0201,-0.0201,0,0,-0.0065,-0.0056,-0.0051,-0.0046,-0.0049,-0.0024,-0.002,-0.0013,0.0006,-0.0026,-0.0014,-0.0038,-0.0053,-0.0062,-0.0086,-0.0116,-0.0132,-0.0147,-0.015,-0.0163,-0.0201,-0.0242,-0.025,-0.0167,-0.0168,-0.0168,-0.0215,0,-0.0021,0.0016,0.0014,0.0048,0.0064,0.0043,0.0057,0.0055,0.005,0.0055,0.0011,0.0024,-0.0023,-0.0011,-0.0056,-0.0106,-0.0139,-0.0116,-0.0216,-0.0219,-0.0255,-0.0255,-0.0217,-0.0258,-0.0218,-0.0218,-0.0219,0,0.0041,0.0055,0.0087,0.0106,0.0116,0.0136,0.016,0.017,0.0158,0.016,0.014,0.0115,0.0087,0.004,-0.0055,-0.004,-0.0109,-0.0166,-0.017,-0.0226,-0.0266,-0.0269,-0.0266,-0.0224,-0.0224,-0.0223,-0.0223,0,0.0083,0.0113,0.0139,0.0142,0.0157,0.0181,0.0196,0.02,0.0231,0.0237,0.0267,0.0202,0.0193,0.009,-0.002,-0.0031,-0.0144,-0.0176,-0.0284,-0.0287,-0.0282,-0.0285,-0.0253,-0.0253,-0.0253,-0.0253,-0.0252,0,0.0126,0.0151,0.0165,0.0178,0.0241,0.0232,0.0298,0.0311,0.033,0.0368,0.0337,0.0343,0.0203,0.0122,0.0004,-0.0146,-0.0125,-0.0273,-0.0305,-0.0264,-0.0265,-0.0258,-0.0258,-0.0254,-0.0254,-0.0254,-0.0253,0,0.0155,0.0157,0.0198,0.023,0.0259,0.0302,0.0375,0.0414,0.0444,0.0491,0.0506,0.0451,0.0345,0.0201,0.0027,-0.01,-0.0241,-0.0303,-0.024,-0.0264,-0.0365,-0.0362,-0.042,-0.0422,-0.0423,-0.0425,-0.0426,0,0.0158,0.0178,0.0244,0.028,0.0302,0.0369,0.0418,0.0468,0.0493,0.0544,0.0548,0.0495,0.0437,0.0185,-0.0043,-0.0245,-0.0274,-0.0359,-0.0384,-0.0359,-0.0384,-0.0378,-0.0373,-0.035,-0.035,-0.0351,-0.0351,0,0.0166,0.0195,0.023,0.0299,0.0366,0.0451,0.0506,0.0551,0.0589,0.0636,0.0653,0.0635,0.0423,0.021,-0.0073,-0.0223,-0.0322,-0.0375,-0.0362,-0.0322,-0.03,-0.0322,-0.0318,-0.0354,-0.0354,-0.0354,-0.0353,-0.0353,0.0159,0.019,0.023,0.0304,0.0399,0.0486,0.054,0.0585,0.0645,0.0714,0.0702,0.0721,0.0492,0.0146,-0.0109,-0.0361,-0.0369,-0.0446,-0.0442,-0.0438,-0.0431,-0.0414,-0.0486,-0.0487,-0.0487,-0.0488,-0.0488,0,0.0115,0.0156,0.0221,0.0298,0.0384,0.0464,0.056,0.0612,0.0664,0.0775,0.0824,0.0676,0.045,0.0212,-0.0157,-0.0409,-0.0412,-0.0483,-0.0415,-0.0411,-0.0408,-0.0396,-0.0444,-0.0445,-0.0445,-0.0445,0,0,0.0074,0.01,0.014,0.0244,0.0333,0.0451,0.0517,0.0636,0.0732,0.0827,0.0881,0.0908,0.0592,0.0338,-0.0003,-0.0205,-0.0251,-0.0256,-0.0267,-0.0144,-0.0137,-0.0369,-0.0345,0,0,0,0,0]}],[{"header":{"parameterUnit":"m.s-1","parameterCategory":2,"la1":30.2991,"la2":30.254,"lo1":-89.0895,"lo2":-89.0444,"dy":0.0017,"dx":0.0017,"nx":28,"ny":28,"refTime":"2024-06-23T03:00:00:Z","depth":"4","parameterNumber":2,"parameterNumberName":"U-component_of_CURRENTS"},"data":[0,0,0,0,0,0,0,0,0,0,0,0,0,0,0,0,0,0,0,0,0,0,0,0,0,0,0,0,0,0,0,0,0,0,0,0,0,0,0,0,0,0,0,0,0,0,0,0,0,0,0,0,0,0,0,0,0,0,0.0854,0.0855,0,0.0929,0.093,0.0931,0.0992,0.0993,0.0994,0.0995,0.1065,0.1066,0.1067,0,0,0,0,0,0,0,0,0,0,0,0,0,0.0752,0.0753,0.0854,0.0855,0.0856,0.0929,0.093,0.0931,0.0992,0.0993,0.0994,0.0995,0.1065,0.1066,0.1067,0,0,0,0,0,0,0,0,0,0,0,0,0,0.0806,0.0754,0.0854,0.0897,0.0902,0.0929,0.093,0.0931,0.0992,0.0993,0.0994,0.0996,0.1064,0.1066,0.1067,0.1051,0,0,0.1072,0.1073,0,0,0,0,0,0,0,0,0.0803,0.081,0.089,0.0894,0.09,0.0955,0.092,0.0972,0.0991,0.0955,0.0995,0.0996,0.1028,0.1033,0.1041,0.1055,0.1058,0.1072,0.1073,0.1074,0.1074,0,0,0,0,0,0,0,0.0799,0.0807,0.0881,0.0891,0.0897,0.091,0.0919,0.093,0.0981,0.0958,0.0964,0.0976,0.1031,0.1039,0.1043,0.1059,0.1072,0.1074,0.1075,0.1075,0.1143,0.1144,0,0,0,0,0,0,0.0794,0.0803,0.0879,0.0884,0.0856,0.0911,0.092,0.0934,0.0982,0.0991,0.0974,0.0978,0.1036,0.1041,0.1046,0.1112,0.1074,0.1076,0.1076,0.1142,0.1143,0.1144,0,0,0,0,0,0,0.0792,0.08,0.0876,0.0847,0.0858,0.0911,0.0926,0.0935,0.0975,0.0994,0.1003,0.1009,0.1037,0.1043,0.1088,0.1112,0.1076,0.1078,0.1141,0.1142,0.1144,0.1191,0,0,0,0,0,0,0.0788,0.0799,0.0817,0.0847,0.0859,0.0917,0.0925,0.0935,0.0979,0.0986,0.1026,0.1033,0.1038,0.1085,0.1089,0.1113,0.1079,0.114,0.1142,0.1143,0.1188,0.1193,0.1198,0,0,0,0,0,0.0784,0.0804,0.0817,0.0827,0.0879,0.0918,0.0927,0.0966,0.098,0.1005,0.1033,0.1033,0.1098,0.1088,0.1092,0.1117,0.1139,0.1141,0.1143,0.1186,0.1192,0.1198,0,0,0,0,0,0,0.0774,0.0813,0.0828,0.0861,0.0898,0.0931,0.0962,0.098,0.1021,0.1035,0.1047,0.1056,0.11,0.11,0.1089,0.1139,0.1117,0.1119,0.1148,0.1154,0.1158,0.1153,0.108,0,0,0,0,0,0.0777,0.0803,0.0841,0.087,0.0893,0.093,0.0954,0.0981,0.1015,0.1036,0.106,0.1084,0.1104,0.1125,0.114,0.1171,0.118,0.1188,0.1193,0.1197,0.1196,0.1232,0.1241,0.115,0.115,0.115,0,0,0.0781,0.0807,0.0823,0.087,0.0904,0.0939,0.0949,0.0998,0.1028,0.1034,0.1089,0.1104,0.1115,0.1153,0.1172,0.1162,0.1231,0.12,0.1203,0.1199,0.1235,0.1244,0.1252,0.1152,0.1151,0.1151,0,0,0.0801,0.0828,0.0861,0.089,0.0946,0.0966,0.0986,0.1033,0.1061,0.1106,0.1116,0.1149,0.1183,0.1197,0.1206,0.1245,0.1253,0.1252,0.1279,0.1316,0.1323,0.133,0.1368,0.1378,0.1258,0.1258,0.1258,0,0.0807,0.0849,0.0877,0.0915,0.0944,0.098,0.1019,0.1048,0.1102,0.1124,0.1134,0.1188,0.1201,0.1238,0.1254,0.1257,0.1281,0.1258,0.1323,0.133,0.1336,0.1373,0.1383,0.126,0.126,0.126,0.126,0,0.0848,0.0887,0.0911,0.0965,0.0998,0.1039,0.1078,0.1116,0.1148,0.1171,0.1224,0.1243,0.1278,0.1284,0.1283,0.1332,0.1337,0.1324,0.1309,0.1348,0.1384,0.1394,0.1264,0.1263,0.1262,0.1262,0,0,0.0843,0.0924,0.0934,0.0965,0.1027,0.1056,0.1107,0.1158,0.1197,0.1239,0.1285,0.1316,0.1333,0.1342,0.1349,0.1374,0.1443,0.1373,0.1374,0.1413,0.1536,0.1468,0.1472,0.145,0.1452,0.1453,0.1548,0,0.0871,0.0941,0.0974,0.1036,0.1074,0.1113,0.1155,0.1202,0.1245,0.1297,0.132,0.1368,0.1354,0.1383,0.1408,0.1428,0.1469,0.1419,0.1489,0.1491,0.1428,0.1481,0.1458,0.1556,0.1558,0.156,0.1561,0,0.0901,0.0941,0.1009,0.1073,0.1095,0.1134,0.1204,0.1249,0.1316,0.1352,0.1399,0.1424,0.147,0.1454,0.1519,0.1492,0.1525,0.1536,0.154,0.1463,0.1441,0.1504,0.1579,0.1577,0.1576,0.1575,0.1574,0,0.0882,0.0962,0.1015,0.1037,0.1116,0.1154,0.1199,0.1269,0.1313,0.1396,0.1441,0.149,0.1539,0.1567,0.1597,0.1574,0.1666,0.1637,0.161,0.1606,0.1617,0.1608,0.1701,0.1701,0.1701,0.17,0.17,0,0.0887,0.093,0.1013,0.1039,0.1098,0.1156,0.1225,0.1278,0.1358,0.1418,0.1475,0.153,0.1574,0.1628,0.1633,0.1653,0.1706,0.1624,0.1627,0.1636,0.1629,0.1625,0.1615,0.1704,0.1703,0.1702,0.1702,0,0.0862,0.0921,0.0979,0.1064,0.1095,0.1137,0.1234,0.1277,0.1368,0.1451,0.1485,0.1585,0.1663,0.1698,0.176,0.1709,0.1723,0.1726,0.1752,0.1753,0.1631,0.1622,0.1694,0.1692,0.1691,0.169,0.1689,0,0.0855,0.0886,0.0983,0.1016,0.106,0.1131,0.1177,0.1271,0.132,0.1475,0.1508,0.1633,0.1691,0.1716,0.1759,0.1778,0.1761,0.1749,0.1663,0.1635,0.1631,0.1625,0.1618,0.1687,0.1686,0.1686,0.1686,0,0.0826,0.0871,0.0916,0.0985,0.1039,0.1092,0.1171,0.1197,0.1317,0.1415,0.1504,0.1555,0.1656,0.1688,0.1728,0.1731,0.1728,0.1734,0.1736,0.1655,0.1627,0.1623,0.1618,0.1681,0.1682,0.1682,0.1682,0,0.0793,0.0817,0.088,0.0936,0.0999,0.1035,0.1083,0.1151,0.1212,0.1379,0.1415,0.1547,0.1654,0.1671,0.1699,0.1702,0.1671,0.1588,0.1597,0.1603,0.1525,0.1473,0.1494,0,0,0,0,0,0.0744,0.0773,0.0824,0.0875,0.0938,0.0976,0.107,0.1119,0.1239,0.1273,0.1339,0.1429,0.1502,0.1566,0.1552,0.1659,0.1669,0.1634,0.1574,0.1655,0.1661,0.1576,0,0,0,0,0,0,0.0707,0.0757,0.0798,0.0816,0.084,0.0895,0.0949,0.1032,0.1056,0.1189,0.1238,0.1342,0.1431,0.1499,0.1526,0.1544,0.1477,0.1717,0.1713,0.1652,0.1657,0.1661,0.1576,0,0,0,0,0]},{"header":{"parameterUnit":"m.s-1","parameterCategory":2,"la1":30.2991,"la2":30.254,"lo1":-89.0895,"lo2":-89.0444,"dy":0.0017,"dx":0.0017,"nx":28,"ny":28,"refTime":"2024-06-23T03:00:00:Z","depth":"4","parameterNumber":3,"parameterNumberName":"V-component_of_CURRENTS"},"data":[0,0,0,0,0,0,0,0,0,0,0,0,0,0,0,0,0,0,0,0,0,0,0,0,0,0,0,0,0,0,0,0,0,0,0,0,0,0,0,0,0,0,0,0,0,0,0,0,0,0,0,0,0,0,0,0,0,0,0.0177,0.0175,0,0.0055,0.0053,0.0052,0.0025,0.0025,0.0026,0.0027,-0.0085,-0.0089,-0.0093,0,0,0,0,0,0,0,0,0,0,0,0,0,0.028,0.0279,0.0177,0.0175,0.0174,0.0055,0.0053,0.0052,0.0024,0.0025,0.0027,0.0028,-0.0084,-0.0088,-0.0093,0,0,0,0,0,0,0,0,0,0,0,0,0,0.0205,0.0279,0.0177,0.0146,0.0142,0.0055,0.0053,0.0051,0.0024,0.0026,0.0027,0.0028,-0.0083,-0.0088,-0.0094,-0.0155,0,0,-0.0111,-0.0114,0,0,0,0,0,0,0,0,0.0209,0.0201,0.0152,0.0148,0.0143,0.0056,0.0048,-0.0017,0.0024,0.0069,0.0027,0.0029,-0.0038,-0.0047,-0.0073,-0.0161,-0.0165,-0.0112,-0.0115,-0.0118,-0.0119,0,0,0,0,0,0,0,0.0215,0.0205,0.0128,0.015,0.0145,0.0102,0.0094,0.0035,0.001,0.0065,0.0063,0.0049,-0.004,-0.0068,-0.0076,-0.0167,-0.0112,-0.0117,-0.012,-0.0122,-0.0272,-0.0273,0,0,0,0,0,0,0.0234,0.0211,0.0132,0.0125,0.018,0.0099,0.009,0.0083,0.001,-0.0,0.0048,0.0048,-0.0059,-0.007,-0.008,-0.0136,-0.0118,-0.0123,-0.0126,-0.0272,-0.0272,-0.0273,0,0,0,0,0,0,0.0237,0.0228,0.0137,0.0165,0.015,0.0097,0.0088,0.008,0.0049,-0.0003,-0.0012,0.0026,-0.0058,-0.0072,-0.0131,-0.0141,-0.0125,-0.0131,-0.0271,-0.0272,-0.0272,-0.0261,0,0,0,0,0,0,0.024,0.023,0.0226,0.0166,0.0149,0.008,0.0087,0.0076,0.0038,0.0037,-0.0025,-0.0034,-0.0058,-0.0123,-0.0137,-0.0149,-0.0135,-0.027,-0.0271,-0.0272,-0.0261,-0.0262,-0.0262,0,0,0,0,0,0.0244,0.0226,0.0227,0.0217,0.0148,0.0078,0.0065,0.0031,0.0036,0.0011,-0.0021,-0.0032,-0.0138,-0.0129,-0.0145,-0.0158,-0.027,-0.0271,-0.0272,-0.0261,-0.0262,-0.0262,0,0,0,0,0,0,0.026,0.0219,0.022,0.019,0.014,0.0074,0.0042,0.0025,-0.0023,-0.0022,-0.0056,-0.0069,-0.012,-0.0145,-0.0134,-0.0202,-0.02,-0.0205,-0.0186,-0.0187,-0.0188,-0.0174,-0.014,0,0,0,0,0,0.0266,0.0248,0.0198,0.0172,0.0147,0.0096,0.0064,0.004,-0.0008,-0.0028,-0.0066,-0.0103,-0.0141,-0.0167,-0.0209,-0.0263,-0.028,-0.0276,-0.0277,-0.0277,-0.0276,-0.0312,-0.0316,-0.0277,-0.0277,-0.0277,0,0,0.0266,0.024,0.023,0.0175,0.0134,0.0092,0.0079,0.0022,-0.0002,-0.0035,-0.0083,-0.0116,-0.0156,-0.0204,-0.0228,-0.0226,-0.0298,-0.0279,-0.0279,-0.0278,-0.0314,-0.0317,-0.0321,-0.0278,-0.0277,-0.0277,0,0,0.024,0.0231,0.0201,0.0165,0.0105,0.0076,0.0062,-0.0005,-0.0023,-0.0079,-0.0094,-0.0132,-0.0203,-0.0226,-0.0246,-0.028,-0.0301,-0.029,-0.0287,-0.0322,-0.0325,-0.0328,-0.0355,-0.036,-0.0289,-0.0289,-0.0289,0,0.0242,0.0206,0.0177,0.0135,0.0112,0.0073,0.0035,0.0002,-0.007,-0.0085,-0.0089,-0.0175,-0.0209,-0.0253,-0.0257,-0.0281,-0.0302,-0.028,-0.0322,-0.0325,-0.0329,-0.0355,-0.0362,-0.0289,-0.0289,-0.0289,-0.0289,0,0.0187,0.0166,0.0139,0.0095,0.0062,0.0019,-0.0019,-0.0048,-0.0067,-0.0095,-0.0145,-0.0193,-0.0236,-0.0251,-0.0267,-0.0306,-0.0313,-0.0319,-0.0317,-0.0332,-0.0359,-0.0366,-0.0288,-0.0288,-0.0288,-0.0288,0,0,0.0173,0.0117,0.0109,0.01,0.0044,0.0013,-0.0021,-0.0063,-0.0072,-0.0131,-0.0153,-0.0215,-0.0233,-0.0256,-0.0282,-0.031,-0.035,-0.0322,-0.0324,-0.0343,-0.0425,-0.0388,-0.0392,-0.0365,-0.0366,-0.0367,-0.0434,0,0.0141,0.0084,0.0062,0.0024,-0.0003,-0.0023,-0.0043,-0.0077,-0.0103,-0.0133,-0.0176,-0.0212,-0.0236,-0.0252,-0.0289,-0.0336,-0.0368,-0.0331,-0.0413,-0.0415,-0.0376,-0.0398,-0.0371,-0.0439,-0.0441,-0.0442,-0.0443,0,0.0092,0.0068,0.0027,0.0015,0.0001,-0.002,-0.0036,-0.0061,-0.0102,-0.0121,-0.0165,-0.0197,-0.0253,-0.0263,-0.0359,-0.0336,-0.038,-0.0414,-0.0417,-0.039,-0.039,-0.0423,-0.0455,-0.0454,-0.0453,-0.0453,-0.0452,0,0.0096,0.005,0.003,0.0019,-0.0011,-0.0019,-0.0031,-0.0062,-0.0065,-0.0113,-0.0117,-0.0197,-0.0225,-0.0302,-0.037,-0.0371,-0.0465,-0.0476,-0.0487,-0.0485,-0.0502,-0.0498,-0.0542,-0.0541,-0.0541,-0.0541,-0.0541,0,0.0074,0.0058,0.0035,0.0023,0.0019,-0.0006,-0.0008,-0.003,-0.0049,-0.0043,-0.0108,-0.0115,-0.0235,-0.0296,-0.0371,-0.0445,-0.0471,-0.049,-0.0501,-0.0496,-0.0491,-0.0507,-0.0502,-0.0544,-0.0543,-0.0543,-0.0542,0,0.0067,0.0051,0.0033,0.0015,0.0017,0.0011,0.0017,0.0021,0.0,0.0007,-0.0003,-0.0067,-0.0143,-0.0253,-0.0373,-0.0429,-0.0512,-0.0529,-0.051,-0.0518,-0.0512,-0.0506,-0.0561,-0.056,-0.056,-0.0559,-0.0559,0,0.0044,0.0036,0.0034,0.0041,0.0032,0.0034,0.0046,0.0038,0.0055,0.0052,0.0063,-0.0006,-0.0055,-0.0192,-0.0323,-0.0475,-0.0487,-0.0539,-0.0535,-0.0509,-0.0515,-0.051,-0.0505,-0.0558,-0.0558,-0.0558,-0.0557,0,0.0007,0.0017,0.0012,0.0041,0.0055,0.0082,0.0103,0.0128,0.0138,0.0122,0.014,0.0067,-0.0017,-0.0154,-0.0272,-0.0379,-0.0516,-0.0533,-0.0535,-0.0533,-0.0506,-0.0511,-0.0507,-0.0555,-0.0556,-0.0556,-0.0556,0,-0.0025,-0.0017,-0.0,0.0036,0.0069,0.0127,0.0136,0.0176,0.0196,0.0207,0.0214,0.0122,0.0054,-0.0103,-0.021,-0.0318,-0.0348,-0.0383,-0.0394,-0.0398,-0.033,-0.0271,-0.026,0,0,0,0,0,-0.0066,-0.0033,-0.0003,0.005,0.0101,0.0135,0.0178,0.0192,0.0218,0.025,0.024,0.0175,0.003,-0.0045,-0.0143,-0.0226,-0.0392,-0.0347,-0.0443,-0.0544,-0.0546,-0.0491,0,0,0,0,0,0,-0.0101,-0.0071,-0.0012,0.0072,0.0127,0.0189,0.0226,0.0243,0.0266,0.0274,0.0201,0.0162,0.0011,0.0098,-0.0137,-0.0175,-0.0247,-0.0423,-0.0425,-0.0542,-0.0544,-0.0546,-0.049,0,0,0,0,0]}]]